{"data":{"norad_id":68222,"epoch":"2026-09-19T21:47:00.462336Z","epoch_age_seconds":102762,"freshness":"FRESH","line1":"1 68222U 26053R   26262.90764424  .00008285  00000+0  25866-3 0  9992","line2":"2 68222  97.2849 136.7115 0001335  84.0640 276.0755 15.33446984 29986","mean_motion":15.33446984,"eccentricity":0.0001335,"inclination_deg":97.2849,"raan_deg":136.7115,"arg_perigee_deg":84.064,"mean_anomaly_deg":276.0755,"bstar":0.00025866,"rev_number":2998,"period_min":93.906083159377,"perigee_km":464.62364098111,"apogee_km":466.4509020116,"semimajor_km":6843.6742714964,"source":"CELESTRAK","updated_at":"2026-09-20T09:00:43.835936Z"}}